Location: Fornova de Taro
(44.7000°N, 10.1000°E)
Time: 22:32:03
(UTC+00:00)

Cosmos 1606 Rocket - Pass Details

Date: 26 May 2022
Orbit: 601 x 632 km, 82.5° (Epoch: 03 July)

Event Time Altitude Azimuth Distance (km) Brightness Sun altitude
Rises 02:27:52 0° 348° (NNW) 2,916 7.5 -11.1°
Reaches altitude 10° 02:30:08 10° 345° (NNW) 2,000 6.6 -10.8°
Maximum altitude 02:34:30 63° 265° (W) 691 3.6 -10.2°
Drops below altitude 10° 02:38:48 10° 184° (S) 1,964 5.7 -9.7°
Enters shadow 02:40:14 - 182° (S) 2,542 6.3 -9.5°
